SCP
-0 0 0 0 0 0 0 0 0 0 0 0 0 0 0 0 0 0 0 0 0 0 0 0 0 0 0 0 0 0 0 0 0 0 0 0 0 0 0 0 0 0 0
-0 0 0 0 0 0 0 0 0 0 0 0 0 0 0 0 0 0 0 0 0 0 0 0 0 0 0 0 0 0 0 0 0 0 0 0 0 0 0 0 0 0 0
0 -0 0 0 0 0 0 0 0 0 0 0 0 0 0 0 0 0 0 0 0 0 0 0 0 0 0 0 0 0 0 0 0 0 0 0 0 0 0 0 0 0 0
0 0 0 0 0 0 0 0 0 0 0 0 0 0 0 0 0 0 0 0 0 0 0 0 0 0 0 0 0 0 0 0 0 0 0 0 0 0 0 0 0 0 0
0 0 0 0 0 0 0 0 0 0 0 0 0 0 0 0 0 0 0 0 0 0 0 0 0 0 0 0 0 0 0 0 0 0 0 0 0 0 0 0 0 0 0
0 0 0 0 0 0 0 0 0 0 0 0 0 0 0 0 0 0 0 0 0 0 0 0 0 0 0 0 0 0 0 0 0 0 0 0 0 0 0 0 0 0 0
0 0 0 0 0 0 0 0 0 0 0 0 0 0 0 0 0 0 0 0 0 0 0 0 0 0 0 0 0 0 0 0 0 0 0 0 0 0 0 0 0 0 0
0 0 0 0 0 0 0 0 0 0 0 0 0 0 0 0 0 0 0 0 0 0 0 0 0 0 0 0 0 0 0 0 0 0 0 0 0 0 0 0 0 0 0
0 0 0 0 0 0 0 0 0 0 0 0 0 0 0 0 0 0 0 0 0 0 0 0 0 0 0 0 0 0 0 0 0 0 0 0 0 0 0 0 0 0 0
0 0 0 0 0 0 0 0 0 0 0 0 0 0 0 0 0 0 0 0 0 0 0 0 0 0 0 0 0 0 0 0 0 0 0 0 0 0 0 0 0 0 0
0 0 0 0 0 0 0 0 0 0 0 0 0 0 0 0 0 0 0 0 0 0 0 0 0 0 0 0 0 0 0 0 0 0 0 0 0 0 0 0 0 0 0
0 0 0 0 0 0 0 0 0 0 0 0 0 0 0 0 0 0 0 0 0 0 0 0 0 0 0 0 0 0 0 0 0 0 0 0 0 0 0 0 0 0 0
0 0 0 0 0 0 0 0 0 0 0 0 0 0 0 0 0 0 0 0 0 0 0 0 0 0 0 0 0 0 0 0 0 0 0 0 0 0 0 0 0 0 0
0 0 0 0 0 0 0 0 0 0 0 0 0 0 0 0 0 0 0 0 0 0 0 0 0 0 0 0 0 0 0 0 0 0 0 0 0 0 0 0 0 0 0
0 0 0 0 0 0 0 0 0 0 0 0 0 0 0 0 0 0 0 0 0 0 0 0 0 0 0 0 0 0 0 0 0 0 0 0 0 0 0 0 0 0 0
0 0 0 0 0 0 0 0 0 0 0 0 0 0 0 0 0 0 0 0 0 0 0 0 0 0 0 0 0 0 0 0 0 0 0 0 0 0 0 0 0 0 0
0 0 0 0 0 0 0 0 0 0 0 0 0 0 0 0 0 0 0 0 0 0 0 0 0 0 0 0 0 0 0 0 0 0 0 0 0 0 0 0 0 0 0
0 0 0 0 0 0 0 0 0 0 0 0 0 0 0 0 0 0 0 0 0 0 0 0 0 0 0 0 0 0 0 0 0 0 0 0 0 0 0 0 0 0 0
0 0 0 0 0 0 0 0 0 0 0 0 0 0 0 0 0 0 0 0 0 0 0 0 0 0 -0 -0 0 -0 0 0 0 0 0 0 0 0 0 0 0 0 0
0 0 0 0 0 0 0 0 0 0 0 -0 0 0 0 0 0 0 0 0 0 0 0 0 0 0 0 0 0 -0 0 0 0 0 0 0 0 0 0 0 0 0 0
0 0 0 0 0 0 0 0 0 0 0 0 0 0 0 0 0 0 0 0 0 0 0 0 0 0 0 0 0 0 0 0 0 0 0 0 0 0 0 0 0 0 0
0 0 0 0 0 0 0 0 0 0 0 0 0 -0 -0 0 0 0 0 0 0 0 0 0 0 0 0 0 0 0 0 0 0 0 0 0 0 0 0 0 0 0 0
0 0 0 0 0 0 0 0 0 0 0 0 0 0 0 0 0 0 0 0 0 0 0 0 0 0 0 0 0 0 0 0 0 0 0 0 0 0 0 0 0 0 0
0 0 0 0 0 0 0 0 0 0 0 0 0 0 0 0 0 0 0 0 0 0 0 0 0 0 0 0 0 0 0 0 0 0 0 0 0 0 0 0 0 0 0
0 0 0 0 0 0 0 0 0 0 0 0 0 0 0 0 0 0 0 0 0 0 0 0 0 0 0 0 0 0 0 0 0 0 0 0 0 0 0 0 0 0 0
0 0 0 0 0 0 0 0 0 0 0 0 0 0 0 0 0 0 0 0 0 0 0 0 0 0 0 0 0 0 -0 -0 -0 -0 0 0 0 0 0 0 0 0 0
Wind_Speed
2 1 1 2 2 2 3 3 3 4 4 4 4 5 4 4 4 3 3 8 10 10 10 10 10 10 10 10 9 9 8 7 7 6 6 6 6 6 5 5 5 6 5
2 2 2 2 2 2 3 3 4 4 4 4 5 5 5 4 4 4 4 5 10 10 11 11 12 12 11 11 11 10 9 8 8 7 7 7 6 6 6 6 6 6 5
3 3 3 3 2 3 4 4 4 4 4 5 5 5 5 4 4 4 4 4 5 9 11 12 13 13 13 12 12 11 10 9 8 8 8 8 7 6 5 6 6 6 5
4 4 3 3 3 3 3 4 3 4 4 4 4 4 4 4 5 5 5 4 4 5 8 13 13 13 13 13 12 11 11 10 9 9 9 9 8 7 6 7 7 6 6
4 4 3 3 3 3 3 4 3 3 4 4 5 5 4 4 4 5 5 5 5 5 4 8 12 13 13 13 13 12 11 11 10 10 9 9 9 8 8 8 7 7 7
4 4 3 4 4 4 4 4 4 3 3 3 6 6 5 4 4 5 5 5 5 5 5 6 5 7 13 13 13 13 11 11 10 10 9 9 9 9 9 8 8 7 7
4 4 3 4 4 4 3 4 4 5 3 3 4 4 5 5 6 5 4 4 5 5 5 6 5 4 5 11 13 13 12 11 10 10 10 9 9 9 9 9 8 8 8
4 4 4 3 3 4 4 4 3 3 2 1 3 3 3 4 5 5 4 4 4 4 5 6 5 5 5 4 8 13 13 12 11 10 10 10 10 10 10 9 9 9 9
4 4 4 3 3 3 3 3 3 3 2 1 1 3 3 2 1 3 4 4 4 4 4 4 6 6 6 5 5 9 13 13 12 11 10 10 10 10 11 10 10 9 9
4 4 4 4 3 3 3 2 2 2 3 1 1 1 2 4 3 1 3 3 4 4 4 4 5 5 5 4 6 10 13 13 13 12 11 10 10 10 10 10 10 10 10
3 4 3 3 3 2 2 2 2 2 2 2 1 1 3 2 2 3 1 2 3 3 3 3 3 4 4 4 4 8 12 12 12 12 11 11 10 10 11 10 10 11 11
2 3 3 3 3 2 2 2 3 3 2 2 2 2 2 2 2 3 3 1 1 2 3 3 3 3 3 4 5 9 11 11 12 12 11 11 11 11 11 11 11 11 11
1 1 2 2 2 2 2 3 3 3 3 3 2 2 2 2 2 3 4 2 1 1 2 2 2 2 2 3 4 8 8 9 10 11 11 11 11 11 11 11 11 11 11
1 1 2 3 3 3 3 3 3 3 3 3 3 3 2 2 2 3 3 3 2 2 2 2 2 2 2 2 3 5 4 8 8 9 9 10 10 10 11 10 10 11 11
2 2 3 3 3 3 3 4 3 3 3 3 3 3 3 2 2 2 2 3 4 2 1 2 1 2 1 1 2 2 2 5 6 7 7 8 9 9 9 9 9 9 10
2 3 3 3 3 3 3 4 3 3 4 3 2 4 3 2 2 2 2 2 2 4 1 1 1 2 1 2 2 2 2 4 4 5 5 6 7 7 7 8 8 8 8
3 3 3 3 3 3 3 3 3 3 4 3 3 4 3 3 3 2 2 2 2 3 3 1 1 1 2 2 2 2 2 2 2 4 4 4 5 6 6 6 6 6 6
3 4 4 4 3 3 3 3 3 3 3 3 2 3 2 3 3 2 2 2 2 2 3 2 1 1 1 1 1 2 2 2 1 3 3 3 4 4 4 4 4 5 5
3 3 4 4 3 3 3 3 3 3 3 3 3 3 2 3 2 2 2 2 1 2 2 2 1 1 1 1 2 2 2 2 2 2 3 3 3 3 4 4 3 3 3
4 4 3 3 3 3 3 3 3 2 2 2 2 2 2 3 3 2 2 2 2 2 2 2 1 0 1 1 1 1 2 2 2 2 3 2 2 3 3 4 3 3 3
5 4 3 3 3 3 3 4 3 3 3 2 2 1 2 3 4 3 3 2 3 2 2 1 1 1 1 1 1 1 1 2 2 1 2 2 2 2 3 4 4 4 4
4 4 4 4 3 2 5 7 5 4 3 3 2 1 1 1 2 3 4 4 5 4 3 2 1 1 1 1 1 1 0 1 2 2 1 2 1 2 3 3 5 5 4
4 4 4 4 3 3 6 7 8 5 4 3 3 2 1 1 2 2 2 2 1 2 4 4 3 3 2 3 2 1 1 1 3 2 0 2 2 3 3 4 7 6 5
4 4 4 4 3 3 5 7 8 4 3 3 3 3 3 2 2 3 2 1 1 1 2 2 3 4 3 3 3 3 3 1 2 2 1 2 2 3 4 3 7 8 7
4 4 4 4 4 3 5 6 6 3 2 2 2 2 3 3 4 4 3 2 1 3 3 2 3 3 3 3 3 2 1 1 2 3 1 1 2 3 3 3 5 7 8
4 4 4 3 4 3 4 5 6 3 2 1 1 2 3 4 4 5 4 3 3 4 2 1 1 2 2 2 3 3 3 2 1 3 2 1 2 2 3 3 3 3 4
Wind_Direction
88 78 74 70 65 72 72 64 63 63 66 62 72 78 78 77 65 52 48 64 67 71 77 76 72 67 63 63 68 67 62 57 54 53 53 54 58 57 56 57 57 51 48
91 85 72 66 64 72 78 80 77 74 68 66 67 70 73 75 69 58 49 55 61 65 68 69 67 64 63 62 62 62 58 54 55 55 53 52 56 57 55 56 58 55 49
81 84 75 69 65 77 82 77 69 66 69 64 58 60 62 63 70 62 55 48 47 56 62 65 63 60 58 57 56 57 55 54 57 56 56 55 56 57 56 59 61 61 57
80 83 80 72 75 78 79 82 73 75 68 63 58 51 50 56 64 63 59 53 47 46 51 57 57 55 54 53 53 54 53 53 56 56 55 54 55 56 59 61 60 61 59
72 83 81 83 83 77 73 88 73 82 83 74 70 57 45 47 51 67 63 57 52 49 44 51 52 50 50 50 49 49 50 52 53 55 55 54 54 57 61 64 58 56 55
64 76 79 78 82 80 71 79 82 71 81 86 81 63 43 41 45 51 58 56 52 52 48 46 38 40 44 45 43 44 45 50 52 54 54 55 55 57 62 62 58 56 54
65 77 81 76 81 87 92 96 94 81 69 84 82 59 36 38 44 40 43 51 48 46 50 47 41 36 32 37 36 40 40 45 50 54 55 55 54 56 59 60 58 57 55
66 87 91 90 91 93 88 90 97 94 76 62 101 93 52 20 18 26 30 49 45 42 49 50 45 43 35 24 27 36 36 42 49 54 57 58 57 57 58 60 58 55 54
67 81 94 97 97 102 109 106 109 114 117 30 82 126 128 150 9 3 19 31 35 40 40 42 45 39 37 28 18 27 37 39 47 55 58 59 60 59 60 59 58 54 52
63 71 89 98 96 96 106 118 116 120 123 112 29 62 126 144 136 80 359 6 27 38 35 42 38 35 32 25 29 37 39 41 45 50 55 59 61 60 58 56 54 53 52
47 66 83 93 97 97 105 95 94 101 116 131 127 101 81 73 95 124 112 345 7 11 22 32 34 31 26 22 24 39 41 41 45 48 52 54 57 58 57 56 55 54 52
29 47 78 85 94 97 104 106 98 98 100 102 101 107 125 131 137 124 131 123 13 343 4 17 27 23 22 20 32 41 44 42 45 46 47 50 52 52 53 52 52 51 51
50 41 74 86 86 94 97 97 92 87 91 98 100 98 103 123 138 128 122 129 79 334 352 2 360 5 22 20 20 36 41 43 44 47 47 47 49 48 47 47 47 46 47
174 146 104 94 92 94 89 87 84 85 88 92 92 94 88 84 108 125 136 135 96 14 5 335 338 354 360 359 11 25 30 41 43 50 49 47 47 47 46 45 45 44 44
164 140 115 99 90 89 89 91 81 79 86 85 90 88 83 69 79 94 119 133 136 131 308 294 312 322 328 352 3 15 15 35 44 49 49 48 46 46 44 44 44 42 42
148 137 120 110 98 87 88 88 87 84 88 79 85 84 75 64 67 72 97 102 116 136 159 264 262 284 329 20 29 13 4 25 33 39 42 41 41 40 39 39 38 37 37
152 150 148 132 119 105 101 98 93 93 93 83 79 92 87 86 80 68 78 87 91 111 123 290 316 333 13 9 359 352 355 360 360 18 29 32 35 34 34 35 34 33 30
154 151 149 135 130 124 116 115 116 107 110 111 108 99 91 94 81 71 80 84 93 112 131 150 299 341 337 317 340 348 356 357 335 355 4 7 9 16 18 21 24 21 19
144 141 142 142 147 144 134 128 127 126 132 139 139 129 122 110 98 86 90 92 90 88 101 133 190 295 315 345 11 352 351 343 328 338 344 348 356 6 6 5 5 4 3
149 153 156 155 154 149 143 137 130 127 125 125 132 140 142 143 150 138 111 114 109 94 87 95 100 322 310 338 39 354 338 332 322 339 341 346 0 359 354 353 348 346 341
158 158 148 146 147 145 155 150 143 135 128 118 107 130 153 150 149 149 141 150 130 111 98 86 76 30 351 349 281 271 294 312 304 306 327 320 330 329 323 320 322 326 330
157 150 155 155 153 161 157 156 149 143 143 145 147 145 141 144 157 159 151 150 148 144 151 144 163 193 246 228 214 196 193 6 310 304 335 300 314 293 284 279 281 291 306
159 158 167 161 168 181 161 155 150 144 151 163 171 177 171 146 146 138 135 121 165 174 163 160 171 207 214 214 171 159 191 201 241 270 21 286 298 288 284 283 277 279 291
163 168 173 173 176 195 175 163 155 144 149 173 185 188 190 206 190 163 152 136 295 276 233 190 193 210 209 198 181 186 198 221 289 296 137 270 287 283 293 288 284 283 288
169 173 172 172 178 209 193 177 158 141 153 199 208 202 199 211 219 179 158 182 268 295 295 252 235 240 237 207 157 109 87 52 314 295 243 236 281 295 292 286 291 291 289
176 168 171 180 182 201 199 182 166 153 174 222 252 250 234 219 209 185 177 184 221 254 266 320 308 303 281 258 214 182 179 180 236 278 260 219 274 316 310 296 302 304 298